Terug naar catalogus

STARLINK-31769

ActiefCommunicatieVLEO
NORAD 59617·PAYLOAD·🇺🇸 United States

Gelanceerd Apr 28, 2024 vanaf Cape Canaveral Space Force Station

Loading…

Volgende Passages (komende 24 uur)

TLE

VersSource: CelesTrak SupGP

Epoch: Sep 15, 2026, 02:23 UTC

1 59617C 24080S   26258.09979167 -.00020771  00000+0 -75214-3 0  2581
2 59617  43.0045  48.5538 0002024 269.0674 196.0927 15.27595850    13

Volg STARLINK-31769 in realtime met AllMySat

Download on the App Store